Avalon, Victoria

9:04 AM AEST on August 29, 2016 (GMT +1000)
Avalon

Weather History for YMAV - August, 2013

Change the Weather History Date:

Sunday, August 25, 2013

  Actual Average (YMML) Record (YMML)
Temperature  
Mean Temperature 56 °F -  
Max Temperature 63 °F 58 °F 69 °F (2007)
Min Temperature 50 °F 42 °F 32 °F (2002)
Degree Days  
Heating Degree Days 8    
Growing Degree Days 6 (Base 50)    
Moisture  
Dew Point 48 °F    
Average Humidity 74    
Maximum Humidity 94    
Minimum Humidity 52    
Precipitation  
Precipitation 0.00 in - - ()
Sea Level Pressure  
Sea Level Pressure 30.18 in    
Wind  
Wind Speed 11 mph ()    
Max Wind Speed 20 mph    
Max Gust Speed -    
Visibility 6.1 miles    
Events Rain    
Averages and records for this station are not official NWS values.
T = Trace of Precipitation, MM = Missing Value Source: Averaged Metar Reports

Daily Weather History Graph

Daily Weather History Graph

Search for Another Location

Airport or City:

Trip Planner

Search our weather history database for the weather conditions in past years. The results will help you decide how hot, cold, wet, or windy it might be!

Date:

Astronomy

Aug. 25, 2013 Rise Set
Actual Time 6:54 AM AEST 5:54 PM AEST
Civil Twilight 6:27 AM AEST 6:21 PM AEST
Nautical Twilight 5:56 AM AEST 6:52 PM AEST
Astronomical Twilight 5:26 AM AEST 7:22 PM AEST
Moon 10:34 PM AEST (8/25) 8:55 AM AEST (8/25)
Length of Visible Light 11h 53m
Length of Day
11h 00m
Waning Gibbous, 81% of the Moon is Illuminated
Aug 25
Waning Gibbous
Aug 28
Last Quarter
Sep 5
New
Sep 13
First Quarter
Sep 19
Full

Hourly Weather History & Observations

Time (AEST) Temp. Dew Point Humidity Pressure Visibility Wind Dir Wind Speed Gust Speed Precip Events Conditions
12:00 AM 52 °F 48 °F 80% 30.18 in - NNW 10.4 mph - -   Overcast
12:00 AM 51.8 °F 48.2 °F 88% 30.18 in 6.2 mi NNW 10.4 mph - N/A   Mostly Cloudy
12:30 AM 53.6 °F 48.2 °F 82% 30.18 in 6.2 mi NNW 12.7 mph - N/A   Overcast
1:00 AM 53.6 °F 46.4 °F 77% 30.15 in 6.2 mi NNW 12.7 mph - N/A   Overcast
1:30 AM 55.4 °F 46.4 °F 72% 30.15 in 6.2 mi NNW 13.8 mph - N/A   Overcast
2:00 AM 55.4 °F 46.4 °F 72% 30.15 in 6.2 mi NNW 10.4 mph - N/A   Overcast
2:30 AM 53.6 °F 46.4 °F 77% 30.15 in 6.2 mi NW 6.9 mph - N/A   Overcast
3:00 AM 54 °F 46 °F 67% 30.17 in - NW 5.8 mph - -   Overcast
3:00 AM 53.6 °F 46.4 °F 77% 30.15 in 6.2 mi NW 5.8 mph - N/A   Overcast
3:30 AM 55.4 °F 46.4 °F 72% 30.15 in 6.2 mi NW 10.4 mph - N/A   Overcast
4:00 AM 53.6 °F 46.4 °F 77% 30.15 in 6.2 mi NW 9.2 mph - N/A   Overcast
4:30 AM 53.6 °F 44.6 °F 72% 30.15 in 6.2 mi NW 10.4 mph - N/A   Overcast
5:00 AM 53.6 °F 44.6 °F 72% 30.15 in 6.2 mi NNW 8.1 mph - N/A   Overcast
5:30 AM 51.8 °F 44.6 °F 76% 30.15 in 6.2 mi North 10.4 mph - N/A   Scattered Clouds
6:00 AM 52 °F 45 °F 70% 30.16 in - North 12.7 mph - -   Overcast
6:00 AM 51.8 °F 44.6 °F 76% 30.15 in 6.2 mi North 12.7 mph - N/A   Scattered Clouds
6:30 AM 51.8 °F 44.6 °F 76% 30.15 in 6.2 mi North 12.7 mph - N/A   Mostly Cloudy
7:00 AM 51.8 °F 44.6 °F 76% 30.15 in 6.2 mi North 12.7 mph - N/A   Overcast
7:30 AM 51.8 °F 44.6 °F 76% 30.15 in 6.2 mi North 15.0 mph - N/A   Unknown
8:00 AM 53.6 °F 44.6 °F 72% 30.18 in 6.2 mi North 15.0 mph - N/A   Mostly Cloudy
8:30 AM 53.6 °F 46.4 °F 77% 30.18 in 6.2 mi North 12.7 mph - N/A   Overcast
9:00 AM 56 °F 46 °F 61% 30.20 in - North 15.0 mph - -   Overcast
9:00 AM 57.2 °F 46.4 °F 67% 30.18 in 6.2 mi North 15.0 mph - N/A   Mostly Cloudy
9:30 AM 57.2 °F 46.4 °F 67% 30.18 in 6.2 mi NNW 12.7 mph - N/A   Overcast
10:00 AM 59.0 °F 46.4 °F 63% 30.18 in 6.2 mi WNW 18.4 mph - N/A   Overcast
10:30 AM 59.0 °F 46.4 °F 63% 30.18 in 6.2 mi WNW 17.3 mph - N/A   Overcast
11:00 AM 60.8 °F 48.2 °F 63% 30.21 in 6.2 mi NW 17.3 mph - N/A   Overcast
11:30 AM 59.0 °F 46.4 °F 63% 30.21 in 6.2 mi WNW 18.4 mph - N/A   Overcast
12:00 PM 60 °F 47 °F 53% 30.21 in - NW 19.6 mph - -   Overcast
12:00 PM 60.8 °F 48.2 °F 63% 30.18 in 6.2 mi NW 19.6 mph - N/A   Overcast
12:30 PM 60.8 °F 48.2 °F 63% 30.18 in 6.2 mi WNW 15.0 mph - N/A   Overcast
1:00 PM 60.8 °F 50.0 °F 68% 30.18 in 6.2 mi WNW 15.0 mph - N/A   Overcast
1:30 PM 60.8 °F 48.2 °F 63% 30.18 in 6.2 mi NW 13.8 mph - N/A   Overcast
2:00 PM 62.6 °F 48.2 °F 59% 30.15 in 6.2 mi WNW 18.4 mph - N/A   Mostly Cloudy
2:30 PM 60.8 °F 48.2 °F 63% 30.15 in 6.2 mi West 16.1 mph - N/A   Overcast
3:00 PM 63 °F 50 °F 52% 30.17 in - WNW 17.3 mph - -   Overcast
3:00 PM 62.6 °F 50.0 °F 63% 30.15 in 6.2 mi WNW 17.3 mph - N/A   Overcast
3:30 PM 60.8 °F 51.8 °F 72% 30.15 in 6.2 mi West 12.7 mph - N/A   Mostly Cloudy
4:00 PM 59.0 °F 51.8 °F 77% 30.15 in 6.2 mi West 11.5 mph - N/A   Overcast
4:30 PM 59.0 °F 50.0 °F 72% 30.15 in 6.2 mi West 13.8 mph - N/A   Mostly Cloudy
5:00 PM 59.0 °F 50.0 °F 72% 30.15 in 6.2 mi WNW 13.8 mph - N/A   Overcast
5:30 PM 57.2 °F 50.0 °F 77% 30.15 in 6.2 mi WNW 10.4 mph - N/A   Overcast
6:00 PM 57 °F 50 °F 70% 30.19 in - WNW 9.2 mph - -   Overcast
6:00 PM 57.2 °F 50.0 °F 77% 30.18 in 6.2 mi WNW 9.2 mph - N/A   Overcast
6:30 PM 57.2 °F 50.0 °F 77% 30.18 in 6.2 mi West 6.9 mph - N/A   Overcast
7:00 PM 55.4 °F 50.0 °F 82% 30.18 in 6.2 mi WNW 8.1 mph - N/A   Overcast
7:30 PM 55.4 °F 50.0 °F 82% 30.18 in 6.2 mi WNW 8.1 mph - N/A   Overcast
8:00 PM 55.4 °F 50.0 °F 82% 30.18 in 6.2 mi WNW 5.8 mph - N/A   Overcast
8:30 PM 55.4 °F 51.8 °F 88% 30.21 in 6.2 mi NW 5.8 mph - N/A   Overcast
9:00 PM 55 °F 51 °F 82% 30.22 in - West 5.8 mph - -   Overcast
9:00 PM 55.4 °F 51.8 °F 88% 30.21 in 6.2 mi West 5.8 mph - N/A   Overcast
9:30 PM 55.4 °F 51.8 °F 88% 30.21 in 6.2 mi West 6.9 mph - N/A   Overcast
9:54 PM 55.4 °F 51.8 °F 88% 30.21 in 3.7 mi West 10.4 mph - N/A   Overcast
10:00 PM 55.4 °F 51.8 °F 88% 30.21 in 3.1 mi WNW 10.4 mph - N/A Rain Light Rain Showers
10:12 PM 53.6 °F 51.8 °F 94% 30.21 in 6.2 mi NNW 5.8 mph - N/A   Overcast
10:30 PM 53.6 °F 51.8 °F 94% 30.21 in 6.2 mi NNW 5.8 mph - N/A   Overcast
11:00 PM 53.6 °F 51.8 °F 94% 30.21 in 6.2 mi NNW 6.9 mph - N/A   Overcast
11:30 PM 53.6 °F 50.0 °F 88% 30.21 in 6.2 mi NNW 8.1 mph - N/A   Overcast